When you browse on this site, cookies collect data to enhance your experience and personalize the content and advertising you see.
Visit our Privacy Policy to learn more. By continuing to use the site, you agree to this use of cookies and data.

Hourly Weather Canberra

Today, 12 July, Sunday

Time Temperature Precipitation Wind Pressure Humidity
00:00 +4°C° 0 mm 0 mps 707 mmHg 94%
01:00 +4°C° 0 mm 0 mps 707 mmHg 95%
02:00 +5°C° 0 mm 1 mps 707 mmHg 95%
03:00 +5°C° 0 mm 1 mps 707 mmHg 95%
04:00 +6°C° 0 mm 1 mps 707 mmHg 95%
05:00 +6°C° 0 mm 1 mps 707 mmHg 94%
06:00 +5°C° 0 mm 0 mps 708 mmHg 94%
07:00 +5°C° 0 mm 0 mps 708 mmHg 93%
08:00 +7°C° 0 mm 1 mps 708 mmHg 87%
09:00 +9°C° 0 mm 1 mps 708 mmHg 81%
10:00 +11°C° 0 mm 1 mps 709 mmHg 73%
11:00 +11°C° 0.6 mm 1 mps 709 mmHg 73%
12:00 +12°C° 0.6 mm 1 mps 708 mmHg 73%
13:00 +12°C° 0.6 mm 1 mps 708 mmHg 73%
14:00 +10°C° 0.7 mm 2 mps 708 mmHg 77%
15:00 +10°C° 0.7 mm 2 mps 708 mmHg 80%
16:00 +9°C° 0.7 mm 2 mps 708 mmHg 83%
17:00 +8°C° 0.1 mm 2 mps 708 mmHg 87%
18:00 +8°C° 0.1 mm 1 mps 708 mmHg 90%
19:00 +7°C° 0.1 mm 1 mps 708 mmHg 93%
20:00 +7°C° 0.4 mm 1 mps 709 mmHg 94%
21:00 +6°C° 0.4 mm 2 mps 709 mmHg 95%
22:00 +6°C° 0.4 mm 2 mps 709 mmHg 96%
23:00 +6°C° 1.1 mm 2 mps 709 mmHg 95%

Tomorrow, 13 July, Monday

Time Temperature Precipitation Wind Pressure Humidity
00:00 +6°C° 1.1 mm 2 mps 709 mmHg 95%
01:00 +7°C° 1.1 mm 3 mps 708 mmHg 95%
02:00 +7°C° 0.4 mm 3 mps 708 mmHg 95%
03:00 +7°C° 0.4 mm 3 mps 708 mmHg 95%
04:00 +7°C° 0.4 mm 3 mps 709 mmHg 95%
05:00 +7°C° 1 mm 3 mps 709 mmHg 95%
06:00 +7°C° 1 mm 2 mps 709 mmHg 95%
07:00 +7°C° 1 mm 2 mps 710 mmHg 95%
08:00 +7°C° 1.8 mm 2 mps 710 mmHg 94%
09:00 +6°C° 1.8 mm 2 mps 710 mmHg 92%
10:00 +5°C° 1.8 mm 3 mps 710 mmHg 91%
11:00 +7°C° 0.3 mm 3 mps 710 mmHg 88%
12:00 +8°C° 0.3 mm 3 mps 710 mmHg 86%
13:00 +9°C° 0.3 mm 3 mps 710 mmHg 83%
14:00 +9°C° 0.2 mm 3 mps 710 mmHg 84%
15:00 +9°C° 0.2 mm 3 mps 710 mmHg 85%
16:00 +8°C° 0.2 mm 4 mps 710 mmHg 85%
17:00 +7°C° 1.1 mm 4 mps 710 mmHg 88%
18:00 +6°C° 1.1 mm 4 mps 710 mmHg 91%
19:00 +5°C° 1.1 mm 4 mps 710 mmHg 93%
20:00 +5°C° 2.8 mm 4 mps 711 mmHg 94%
21:00 +5°C° 2.8 mm 3 mps 711 mmHg 95%
22:00 +5°C° 2.8 mm 3 mps 711 mmHg 95%
23:00 +5°C° 2.5 mm 3 mps 711 mmHg 95%

Day after tomorrow, 14 July, Tuesday

Time Temperature Precipitation Wind Pressure Humidity
00:00 +5°C° 2.5 mm 3 mps 711 mmHg 95%
01:00 +5°C° 2.5 mm 3 mps 711 mmHg 95%
02:00 +7°C° 1.7 mm 3 mps 711 mmHg 95%
03:00 +7°C° 1.7 mm 2 mps 711 mmHg 95%
04:00 +7°C° 1.7 mm 2 mps 711 mmHg 95%
05:00 +7°C° 0.1 mm 3 mps 711 mmHg 95%
06:00 +7°C° 0.1 mm 3 mps 712 mmHg 94%
07:00 +7°C° 0.1 mm 3 mps 712 mmHg 93%
08:00 +7°C° 0 mm 4 mps 712 mmHg 88%
09:00 +7°C° 0 mm 5 mps 713 mmHg 84%
10:00 +8°C° 0 mm 6 mps 713 mmHg 79%
11:00 +9°C° 0 mm 6 mps 713 mmHg 74%
12:00 +10°C° 0 mm 5 mps 713 mmHg 68%
13:00 +10°C° 0 mm 5 mps 712 mmHg 62%
14:00 +10°C° 0 mm 5 mps 712 mmHg 66%
15:00 +10°C° 0 mm 4 mps 712 mmHg 70%
16:00 +10°C° 0 mm 3 mps 712 mmHg 74%
17:00 +8°C° 0 mm 3 mps 712 mmHg 80%
18:00 +6°C° 0 mm 2 mps 713 mmHg 86%
19:00 +5°C° 0 mm 2 mps 713 mmHg 91%
20:00 +5°C° 0 mm 2 mps 713 mmHg 92%
21:00 +4°C° 0 mm 2 mps 713 mmHg 93%
22:00 +4°C° 0 mm 2 mps 713 mmHg 93%
23:00 +4°C° 0 mm 2 mps 713 mmHg 93%

15 July, Wednesday

Time Temperature Precipitation Wind Pressure Humidity
00:00 +4°C° 0 mm 2 mps 712 mmHg 93%
01:00 +3°C° 0 mm 2 mps 712 mmHg 93%
02:00 +4°C° 0 mm 2 mps 712 mmHg 91%
03:00 +4°C° 0 mm 2 mps 712 mmHg 89%
04:00 +4°C° 0 mm 2 mps 712 mmHg 87%
05:00 +4°C° 0 mm 2 mps 712 mmHg 86%
06:00 +4°C° 0 mm 2 mps 712 mmHg 84%
07:00 +4°C° 0 mm 2 mps 712 mmHg 83%
08:00 +4°C° 0 mm 3 mps 712 mmHg 77%
09:00 +5°C° 0 mm 4 mps 712 mmHg 72%
10:00 +7°C° 0 mm 4 mps 712 mmHg 66%
11:00 +7°C° 0 mm 4 mps 712 mmHg 65%
12:00 +8°C° 0 mm 4 mps 711 mmHg 63%
13:00 +8°C° 0 mm 4 mps 711 mmHg 62%
14:00 +8°C° 0 mm 4 mps 711 mmHg 63%
15:00 +8°C° 0 mm 4 mps 711 mmHg 63%
16:00 +9°C° 0 mm 3 mps 711 mmHg 64%
17:00 +7°C° 0 mm 3 mps 711 mmHg 71%
18:00 +6°C° 0 mm 2 mps 711 mmHg 78%
19:00 +4°C° 0 mm 2 mps 711 mmHg 85%
20:00 +3°C° 0 mm 2 mps 711 mmHg 87%
21:00 +3°C° 0 mm 2 mps 711 mmHg 90%
22:00 +3°C° 0 mm 1 mps 711 mmHg 92%
23:00 +3°C° 0 mm 1 mps 711 mmHg 92%

16 July, Thursday

Time Temperature Precipitation Wind Pressure Humidity
00:00 +3°C° 0 mm 1 mps 711 mmHg 93%
01:00 +3°C° 0 mm 1 mps 711 mmHg 93%
02:00 +3°C° 0 mm 1 mps 711 mmHg 92%
03:00 +2°C° 0 mm 2 mps 711 mmHg 91%
04:00 +2°C° 0 mm 2 mps 711 mmHg 90%
05:00 +3°C° 0 mm 2 mps 711 mmHg 88%
06:00 +3°C° 0 mm 2 mps 711 mmHg 87%
07:00 +3°C° 0 mm 2 mps 711 mmHg 86%
08:00 +4°C° 0 mm 3 mps 712 mmHg 79%
09:00 +7°C° 0 mm 3 mps 712 mmHg 72%
10:00 +7°C° 0 mm 4 mps 712 mmHg 66%
11:00 +8°C° 0 mm 4 mps 712 mmHg 64%
12:00 +10°C° 0 mm 4 mps 712 mmHg 63%
13:00 +10°C° 0 mm 4 mps 711 mmHg 62%
14:00 +10°C° 0 mm 4 mps 711 mmHg 63%
15:00 +10°C° 0 mm 3 mps 711 mmHg 65%
16:00 +9°C° 0 mm 3 mps 711 mmHg 67%
17:00 +8°C° 0 mm 3 mps 712 mmHg 72%
18:00 +7°C° 0 mm 2 mps 712 mmHg 77%
19:00 +6°C° 0 mm 2 mps 713 mmHg 82%
20:00 +5°C° 0 mm 2 mps 713 mmHg 84%
21:00 +4°C° 0 mm 2 mps 713 mmHg 87%
22:00 +4°C° 0 mm 2 mps 713 mmHg 89%
23:00 +4°C° 0 mm 2 mps 713 mmHg 90%

17 July, Friday

Time Temperature Precipitation Wind Pressure Humidity
00:00 +3°C° 0 mm 2 mps 713 mmHg 91%
01:00 +3°C° 0 mm 2 mps 713 mmHg 92%
02:00 +2°C° 0 mm 2 mps 713 mmHg 92%
03:00 +3°C° 0 mm 1 mps 713 mmHg 92%
04:00 +3°C° 0 mm 1 mps 712 mmHg 93%
05:00 +2°C° 0 mm 1 mps 713 mmHg 93%
06:00 +2°C° 0 mm 1 mps 713 mmHg 93%
07:00 +2°C° 0 mm 1 mps 713 mmHg 94%
08:00 +4°C° 0 mm 1 mps 714 mmHg 86%
09:00 +6°C° 0 mm 1 mps 714 mmHg 77%
10:00 +8°C° 0 mm 1 mps 714 mmHg 69%
11:00 +10°C° 0 mm 1 mps 714 mmHg 63%
12:00 +11°C° 0 mm 1 mps 713 mmHg 58%
13:00 +12°C° 0 mm 0 mps 713 mmHg 53%
14:00 +11°C° 0 mm 0 mps 713 mmHg 56%
15:00 +12°C° 0 mm 1 mps 712 mmHg 60%
16:00 +11°C° 0 mm 1 mps 712 mmHg 64%
17:00 +8°C° 0 mm 0 mps 712 mmHg 71%
18:00 +6°C° 0 mm 0 mps 712 mmHg 79%
19:00 +4°C° 0 mm 0 mps 712 mmHg 86%
20:00 +3°C° 0 mm 0 mps 712 mmHg 88%
21:00 +3°C° 0 mm 0 mps 712 mmHg 90%
22:00 +2°C° 0 mm 0 mps 712 mmHg 91%
23:00 +2°C° 0 mm 0 mps 712 mmHg 92%
Show more